STARLINK-36093 (67015 NORAD) Tracking and Keplerian Element Data

This shows tracking and keplerian element data for the satellite.

Feedback or suggestion? Click here.




ElementValue
Catalog67015
NameSTARLINK-36093
Epoch Orbit132
Epoch Day354.25003472
Epoch Year2025
RAAN301.9529
Inclination69.9939
Eccentricity0.0003894
Argument of Perigee270.2578
Mean Anonmoly326.024
Mean Motion15.92624622
Decay Rate-0.01239694
L11 67015U 25293N 25354.25003472 -.01239694 45220-3 -36223-2 0 9992
L22 67015 69.9939 301.9529 0003894 270.2578 326.0240 15.92624622 1322



Live tracking and technical data element details for STARLINK-36093 (NORAD 67015). STARLINK-36093 can be tracked NOW for your location showing map with azimuth and elevation plus other details from your city location.







IsCatalogInMostPopularTable: catalog: 67015, numindb: 36
Update: records affected: 1



GetName: 67015 STARLINK-36093

Hit Count: updated at: Tue, 17 Feb 2026 12:24:56 GMT